TimeEDT,TemperatureF,Dew PointF,Humidity,Sea Level PressureIn,VisibilityMPH,Wind Direction,Wind SpeedMPH,Gust SpeedMPH,PrecipitationIn,Events,Conditions,WindDirDegrees,DateUTC
12:53 AM,78.1,64.9,64,30.08,10.0,NNE,8.1,-,N/A,,Clear,30,2012-10-12 04:53:00
1:53 AM,77.0,66.0,69,30.07,10.0,NNE,6.9,-,N/A,,Scattered Clouds,20,2012-10-12 05:53:00
2:53 AM,77.0,64.9,66,30.05,10.0,NE,9.2,-,N/A,,Clear,40,2012-10-12 06:53:00
3:53 AM,73.4,66.2,78,30.05,10.0,NNW,5.8,-,N/A,,Clear,340,2012-10-12 07:53:00
4:53 AM,73.0,68.0,84,30.05,10.0,NNW,6.9,-,N/A,,Partly Cloudy,340,2012-10-12 08:53:00
5:53 AM,73.9,68.0,82,30.06,10.0,North,6.9,-,N/A,,Mostly Cloudy,350,2012-10-12 09:53:00
6:53 AM,73.0,68.0,84,30.08,10.0,NNW,5.8,-,N/A,,Clear,340,2012-10-12 10:53:00
7:53 AM,73.0,68.0,84,30.09,10.0,North,5.8,-,N/A,,Partly Cloudy,350,2012-10-12 11:53:00
8:53 AM,77.0,68.0,74,30.10,10.0,North,5.8,-,N/A,,Clear,10,2012-10-12 12:53:00
9:53 AM,81.0,64.9,58,30.12,10.0,NE,11.5,19.6,N/A,,Scattered Clouds,40,2012-10-12 13:53:00
10:53 AM,82.0,64.9,56,30.12,10.0,NE,18.4,25.3,N/A,,Scattered Clouds,40,2012-10-12 14:53:00
11:53 AM,84.2,64.4,51,30.11,10.0,ENE,17.3,26.5,N/A,,Scattered Clouds,60,2012-10-12 15:53:00
12:53 PM,84.0,64.0,51,30.10,10.0,NNE,17.3,24.2,N/A,,Scattered Clouds,20,2012-10-12 16:53:00
1:53 PM,84.9,64.0,49,30.08,10.0,NNE,17.3,23.0,N/A,,Scattered Clouds,30,2012-10-12 17:53:00
2:53 PM,84.9,63.0,48,30.06,10.0,NNE,13.8,25.3,N/A,,Scattered Clouds,30,2012-10-12 18:53:00
3:53 PM,84.9,64.0,49,30.05,10.0,NE,16.1,23.0,N/A,,Scattered Clouds,50,2012-10-12 19:53:00
4:53 PM,82.9,63.0,51,30.05,10.0,NE,18.4,-,N/A,,Partly Cloudy,40,2012-10-12 20:53:00
5:53 PM,81.0,64.0,56,30.06,10.0,NE,11.5,-,N/A,,Partly Cloudy,40,2012-10-12 21:53:00
6:53 PM,80.1,62.1,54,30.08,10.0,NNE,16.1,-,N/A,,Clear,30,2012-10-12 22:53:00
7:53 PM,79.0,64.0,60,30.09,10.0,NNE,9.2,-,N/A,,Clear,20,2012-10-12 23:53:00
8:53 PM,77.0,64.0,64,30.10,10.0,North,10.4,-,N/A,,Clear,10,2012-10-13 00:53:00
9:53 PM,75.9,64.0,67,30.11,10.0,North,9.2,-,N/A,,Clear,360,2012-10-13 01:53:00
10:53 PM,75.0,64.9,71,30.12,10.0,North,6.9,-,N/A,,Clear,360,2012-10-13 02:53:00
11:53 PM,73.9,66.0,76,30.11,10.0,North,5.8,-,N/A,,Partly Cloudy,360,2012-10-13 03:53:00